Home > Weather > Coimbra > Past weeks

Flag for Portugal Weather for the Past 2 Weeks in Coimbra, Portugal

Now
57 °F

Drizzle. Fog.


Feels Like: 55 °F
Forecast: 50 / 55 °F
Wind: 12 mph from Southwest

Location: Porto / Pedras Rubras

Current Time: Feb 10, 2016 at 7:46:04 AM

Latest Report: Feb 10, 2016 at 7:00 AM


Visibility: 2 mi

Pressure: 30.04 "Hg

Humidity: 100%

Dew point: 57 °F

Location of CoimbraLocation

Historic Weather in Coimbra — Graph

°F

Coimbra Temperature Yesterday

Maximum temperature yesterday: 57 °F (at 1:00 AM)
Minimum temperature yesterday: 54 °F (at 5:30 PM)
Average temperature yesterday: 56 °F

High & Low Weather Summary for the Past Weeks

 TemperatureHumidityPressure
High64 °F (Feb 5, 2:30 PM)100% (Jan 26, 6:00 AM)30.66 "Hg (Jan 26, 6:00 AM)
Low39 °F (Jan 30, 4:00 AM)34% (Feb 4, 4:30 PM)29.83 "Hg (Feb 6, 4:30 PM)
Average52 °F83%30.38 "Hg
* Reported Jan 26 6:00 AM — Feb 10 6:30 AM, Coimbra, Weather by CustomWeather, © 2016

Note: Actual official high and low records may vary slightly from our data, if they occured in-between our weather recording intervals... More about our weather records

Advertising

Coimbra Weather History for the Previous 24 Hours

 ConditionsComfort  
Time TempWeatherWind HumidityBarometerVisibility
6:30 AM
Wed, Feb 10
57 °FDrizzle. Fog.14 mph100%30.04 "Hg2 mi
6:00 AM57 °FDrizzle. Fog.15 mph94%30.04 "Hg3 mi
5:30 AM57 °FDrizzle. Fog.15 mph94%30.07 "Hg2 mi
5:00 AM57 °FDrizzle. Fog.14 mph94%30.07 "Hg2 mi
4:30 AM57 °FDrizzle. Mostly cloudy.15 mph94%30.07 "Hg4 mi
4:00 AM57 °FMostly cloudy.13 mph88%30.09 "Hg6 mi
3:30 AM57 °FPartly cloudy.10 mph88%30.09 "Hg6 mi
3:00 AM55 °FPartly cloudy.10 mph94%30.12 "Hg5 mi
2:30 AM57 °FDrizzle. Overcast.10 mph82%30.15 "Hg5 mi
2:00 AM55 °FOvercast.10 mph88%30.15 "HgN/A
1:30 AM55 °FPassing clouds.8 mph88%30.15 "HgN/A
12:30 AM55 °FPartly cloudy.7 mph88%30.18 "HgN/A
12:00 AM55 °FPartly cloudy.8 mph88%30.18 "HgN/A
11:30 PM
Tue, Feb 9
57 °FLight rain. Partly cloudy.8 mph82%30.18 "HgN/A
11:00 PM57 °FPassing clouds.7 mph82%30.18 "HgN/A
10:30 PM57 °FPassing clouds.8 mph82%30.18 "HgN/A
9:30 PM57 °FPartly cloudy.9 mph82%30.18 "HgN/A
9:00 PM57 °FPartly cloudy.8 mph82%30.18 "HgN/A
8:30 PM57 °FPassing clouds.8 mph82%30.18 "HgN/A
8:00 PM55 °FLight rain. Partly cloudy.8 mph88%30.18 "HgN/A
7:30 PM54 °FPartly cloudy.6 mph100%30.18 "HgN/A
7:00 PM54 °FLight rain. Partly cloudy.6 mph94%30.18 "Hg6 mi
6:30 PM54 °FLight rain. Partly cloudy.8 mph94%30.18 "Hg5 mi
6:00 PM54 °FLight rain. Fog.7 mph100%30.18 "Hg3 mi
5:30 PM54 °FLight rain. Broken clouds.8 mph100%30.15 "Hg4 mi
5:00 PM55 °FRain. Partly sunny.7 mph94%30.15 "Hg4 mi
4:30 PM55 °FRain. Partly sunny.7 mph94%30.15 "Hg4 mi
3:30 PM57 °FSprinkles. Broken clouds.9 mph88%30.15 "HgN/A
3:00 PM57 °FLight rain. Partly sunny.8 mph88%30.15 "Hg6 mi
2:30 PM57 °FLight rain. Broken clouds.9 mph94%30.15 "Hg4 mi
2:00 PM57 °FLight rain. Fog.9 mph94%30.15 "Hg2 mi
1:30 PM57 °FBroken clouds.12 mph100%30.15 "Hg5 mi
1:00 PM57 °FBroken clouds.13 mph100%30.15 "Hg5 mi
12:30 PM57 °FDrizzle. Fog.13 mph94%30.15 "Hg1 mi
12:00 PM57 °FPartly sunny.13 mph100%30.18 "Hg4 mi
11:30 AM57 °FPartly sunny.14 mph100%30.15 "Hg4 mi
10:30 AM57 °FDrizzle. Fog.15 mph94%30.15 "Hg1 mi
10:00 AM57 °FDrizzle. Fog.15 mph94%30.15 "Hg1 mi
9:30 AM55 °FDrizzle. Fog.16 mph100%30.15 "Hg2 mi
9:00 AM55 °FDrizzle. Fog.17 mph100%30.15 "Hg1 mi
8:00 AM57 °FDrizzle. Fog.16 mph82%30.12 "Hg3 mi
7:30 AM57 °FPartly cloudy.12 mph82%30.15 "HgN/A
7:00 AM57 °FPartly cloudy.13 mph88%30.15 "HgN/A
Weather by CustomWeather, © 2016

See weather overviewHow to use our weather pages